CAPE
0 0 0 0 0 0 0 0 0 0 0 0 0 0 0 0 0 0 0 0 0 0
0 0 0 0 0 0 0 0 0 0 2 4 5 0 0 1 0 0 0 0 0 0
0 0 0 0 0 0 0 0 1 3 0 1 0 0 0 10 1 0 0 0 0 0
0 0 0 0 0 0 0 0 2 1 0 3 4 3 5 0 0 0 0 0 0 0
0 0 0 0 0 0 0 0 0 0 2 13 0 9 5 7 1 0 1 0 0 0
0 0 0 0 0 0 0 4 0 10 0 6 15 0 1 12 2 1 1 0 0 0
27 0 0 0 0 4 3 1 3 0 0 0 3 9 10 7 12 0 5 2 0 0
164 48 0 0 0 0 1 2 0 2 11 5 3 3 4 8 6 1 1 1 0 0
207 108 47 8 4 8 13 3 3 7 1 3 9 17 1 15 3 8 7 2 0 0
223 127 97 76 17 24 18 27 34 39 6 15 23 31 15 12 10 0 0 4 1 3
130 128 109 106 148 161 108 66 100 124 35 17 59 47 63 34 49 29 12 12 18 12
127 124 105 87 6 2 25 119 184 48 18 31 30 64 80 75 54 48 62 21 4 6
0 0 0 1 13 46 84 81 46 18 25 30 33 57 82 106 89 129 73 60 12 4
0 0 0 0 0 0 0 0 0 2 33 66 77 72 111 95 96 114 137 45 14 10
CIN
-0 -0 -0 -0 -0 -0 -0 -0 -0 -0 -0 -0 -0 -0 -0 -0 -0 -0 -0 -0 -0 -0
-0 -0 -0 -0 -0 -0 -0 -0 -0 -0 -3 -12 -15 -0 -0 -1 -0 -0 -0 -0 -0 -0
-0 -0 -0 -0 -0 -0 -0 -0 -4 -10 -0 -14 -0 -0 -0 -1 -1 -0 -0 -0 -0 -0
-0 -0 -0 -0 -0 -0 -0 -0 -3 -4 -0 -9 -0 -0 -3 -0 -0 -0 -1 -0 -0 -0
-0 -0 -0 -0 -0 -0 -0 -0 -0 -0 -3 -2 -8 -1 -5 -0 -2 -0 -0 -0 -0 -0
-0 -0 -0 -0 -0 -0 -0 -7 -0 -2 -0 -0 -0 -7 -0 -0 -0 -0 -0 -0 -0 -0
-37 -0 -0 -0 -0 -8 -4 -1 -1 -0 -0 -0 -0 -0 -0 -0 -0 -0 -0 -6 -0 -0
-54 -56 -0 -0 -0 -0 -2 -0 -0 -2 -2 -1 -0 -0 -0 -0 -0 -3 -0 -4 -0 -0
-53 -43 -48 -51 -2 -4 -0 -5 -1 -0 -0 -0 -0 -0 -0 -0 -0 -0 -0 -0 -0 -0
-50 -42 -26 -35 -20 -18 -0 -0 -0 -0 -3 -3 -1 -0 -0 -0 -0 -0 -0 -5 -17 -0
-38 -52 -51 -60 -34 -34 -36 -26 -4 -0 -6 -0 -2 -1 -0 -1 -0 -15 -50 -52 -46 -0
-82 -88 -37 -20 -12 -9 -52 -25 -4 -12 -13 -1 -0 -5 -1 -0 -26 -45 -33 -48 -33 -0
-0 -0 -0 -87 -65 -21 -5 -5 -14 -1 -18 -5 -16 -32 -30 -20 -24 -26 -32 -20 -0 -0
-0 -0 -0 -0 -0 -0 -0 -0 -0 -3 -27 -28 -43 -53 -26 -34 -28 -15 -0 -0 -6 -0
Wind_Speed
nan nan nan nan nan nan nan nan nan nan nan nan nan nan nan nan nan nan nan nan nan nan
nan nan nan nan nan nan nan nan nan nan nan nan nan nan nan nan nan nan nan nan nan nan
nan nan nan nan nan nan nan nan nan nan nan nan nan nan nan nan nan nan nan nan nan nan
nan nan nan nan nan nan nan nan nan nan nan nan nan nan nan nan nan nan nan nan nan nan
nan nan nan nan nan nan nan nan nan nan nan nan nan nan nan nan nan nan nan nan nan nan
nan nan nan nan nan nan nan nan nan nan nan nan nan nan nan nan nan nan nan nan nan nan
nan nan nan nan nan nan nan nan nan nan nan nan nan nan nan nan nan nan nan nan nan nan
22 nan nan nan nan nan nan nan nan nan nan nan nan nan nan nan nan nan nan nan nan nan
29 22 nan nan nan nan nan nan nan nan nan nan nan nan nan nan nan nan nan nan nan nan
27 27 nan nan nan nan nan nan nan nan nan nan nan nan nan nan nan nan nan nan nan nan
26 26 26 27 27 31 35 nan 40 42 nan nan nan nan nan nan nan nan nan nan nan nan
24 23 26 nan nan nan nan 34 38 nan nan nan nan nan nan nan nan nan nan nan nan nan
nan nan nan nan nan nan nan nan nan nan nan nan nan nan nan 70 nan 58 nan nan nan nan
nan nan nan nan nan nan nan nan nan nan nan nan nan nan 65 nan nan 66 71 nan nan nan
Wind_Direction
nan nan nan nan nan nan nan nan nan nan nan nan nan nan nan nan nan nan nan nan nan nan
nan nan nan nan nan nan nan nan nan nan nan nan nan nan nan nan nan nan nan nan nan nan
nan nan nan nan nan nan nan nan nan nan nan nan nan nan nan nan nan nan nan nan nan nan
nan nan nan nan nan nan nan nan nan nan nan nan nan nan nan nan nan nan nan nan nan nan
nan nan nan nan nan nan nan nan nan nan nan nan nan nan nan nan nan nan nan nan nan nan
nan nan nan nan nan nan nan nan nan nan nan nan nan nan nan nan nan nan nan nan nan nan
nan nan nan nan nan nan nan nan nan nan nan nan nan nan nan nan nan nan nan nan nan nan
305 nan nan nan nan nan nan nan nan nan nan nan nan nan nan nan nan nan nan nan nan nan
308 306 nan nan nan nan nan nan nan nan nan nan nan nan nan nan nan nan nan nan nan nan
309 310 nan nan nan nan nan nan nan nan nan nan nan nan nan nan nan nan nan nan nan nan
311 311 311 314 321 318 315 nan 317 314 nan nan nan nan nan nan nan nan nan nan nan nan
312 314 311 nan nan nan nan 310 313 nan nan nan nan nan nan nan nan nan nan nan nan nan
nan nan nan nan nan nan nan nan nan nan nan nan nan nan nan 322 nan 318 nan nan nan nan
nan nan nan nan nan nan nan nan nan nan nan nan nan nan 327 nan nan 317 320 nan nan nan